Time,TemperatureF,DewpointF,PressureIn,WindDirection,WindDirectionDegrees,WindSpeedMPH,WindSpeedGustMPH,Humidity,HourlyPrecipIn,Conditions,Clouds,dailyrainin,SoftwareType,DateUTC
2013-04-23 00:00:00,30.9,21.6,29.88,NE,46,0.0,0.0,68,0.00,,CLR,0.00,VWS V14.01,2013-04-23 04:00:00,
2013-04-23 00:01:00,30.9,21.6,29.88,NE,46,0.0,0.0,68,0.00,,CLR,0.00,VWS V14.01,2013-04-23 04:01:00,
2013-04-23 00:06:00,30.7,21.4,29.88,NE,46,0.0,0.0,68,0.00,,CLR,0.00,VWS V14.01,2013-04-23 04:06:00,
2013-04-23 00:11:00,30.7,21.8,29.88,NE,46,0.0,0.0,69,0.00,,CLR,0.00,VWS V14.01,2013-04-23 04:11:00,
2013-04-23 00:16:00,30.6,21.6,29.88,NE,46,0.0,0.0,69,0.00,,CLR,0.00,VWS V14.01,2013-04-23 04:16:00,
2013-04-23 00:21:00,30.6,21.6,29.88,NE,46,0.0,0.0,69,0.00,,CLR,0.00,VWS V14.01,2013-04-23 04:21:00,
2013-04-23 00:26:00,30.4,21.4,29.88,NE,46,0.0,0.0,69,0.00,,CLR,0.00,VWS V14.01,2013-04-23 04:26:00,
2013-04-23 00:31:00,30.4,21.8,29.88,NE,46,0.0,0.0,70,0.00,,CLR,0.00,VWS V14.01,2013-04-23 04:31:00,
2013-04-23 00:36:00,30.2,21.6,29.88,NE,46,0.0,0.0,70,0.00,,CLR,0.00,VWS V14.01,2013-04-23 04:36:00,
2013-04-23 00:41:00,30.2,21.6,29.88,NE,46,0.0,0.0,70,0.00,,CLR,0.00,VWS V14.01,2013-04-23 04:41:00,
2013-04-23 00:46:00,30.2,21.9,29.88,NE,46,0.0,0.0,71,0.00,,CLR,0.00,VWS V14.01,2013-04-23 04:46:00,
2013-04-23 00:51:00,30.0,21.8,29.88,NE,46,0.0,0.0,71,0.00,,CLR,0.00,VWS V14.01,2013-04-23 04:51:00,
2013-04-23 00:56:00,30.0,21.8,29.88,NE,46,0.0,0.0,71,0.00,,CLR,0.00,VWS V14.01,2013-04-23 04:56:00,
2013-04-23 01:01:00,30.0,22.1,29.88,NE,46,0.0,0.0,72,0.00,,CLR,0.00,VWS V14.01,2013-04-23 05:01:00,
2013-04-23 01:06:00,29.8,21.9,29.88,NE,46,0.0,0.0,72,0.00,,CLR,0.00,VWS V14.01,2013-04-23 05:06:00,
2013-04-23 01:11:00,29.7,21.8,29.88,NE,46,0.0,0.0,72,0.00,,CLR,0.00,VWS V14.01,2013-04-23 05:11:00,
2013-04-23 01:16:00,29.7,21.8,29.88,NE,46,0.0,0.0,72,0.00,,CLR,0.00,VWS V14.01,2013-04-23 05:16:00,
2013-04-23 01:21:00,29.5,21.6,29.85,NE,46,0.0,0.0,72,0.00,,CLR,0.00,VWS V14.01,2013-04-23 05:21:00,
2013-04-23 01:26:00,29.5,21.6,29.85,NE,46,0.0,0.0,72,0.00,,CLR,0.00,VWS V14.01,2013-04-23 05:26:00,
2013-04-23 01:31:00,29.5,21.9,29.85,NE,46,0.0,0.0,73,0.00,,CLR,0.00,VWS V14.01,2013-04-23 05:31:00,
2013-04-23 01:36:00,29.5,21.9,29.85,NE,46,0.0,0.0,73,0.00,,CLR,0.00,VWS V14.01,2013-04-23 05:36:00,
2013-04-23 01:41:00,29.3,21.7,29.85,NE,46,0.0,0.0,73,0.00,,CLR,0.00,VWS V14.01,2013-04-23 05:41:00,
2013-04-23 01:46:00,29.3,21.7,29.85,NE,46,0.0,0.0,73,0.00,,CLR,0.00,VWS V14.01,2013-04-23 05:46:00,
2013-04-23 01:51:00,29.1,21.6,29.85,NE,46,0.0,0.0,73,0.00,,CLR,0.00,VWS V14.01,2013-04-23 05:51:00,
2013-04-23 01:56:00,29.1,21.9,29.85,NE,46,0.0,0.0,74,0.00,,CLR,0.00,VWS V14.01,2013-04-23 05:56:00,
2013-04-23 02:01:00,29.1,21.9,29.85,NE,46,0.0,0.0,74,0.00,,CLR,0.00,VWS V14.01,2013-04-23 06:01:00,
2013-04-23 02:06:00,29.1,21.9,29.83,NE,46,0.0,0.0,74,0.00,,CLR,0.00,VWS V14.01,2013-04-23 06:06:00,
2013-04-23 02:11:00,29.1,21.9,29.83,NE,46,0.0,0.0,74,0.00,,CLR,0.00,VWS V14.01,2013-04-23 06:11:00,
2013-04-23 02:16:00,29.1,22.2,29.83,NE,46,0.0,0.0,75,0.00,,CLR,0.00,VWS V14.01,2013-04-23 06:16:00,
2013-04-23 02:21:00,28.9,22.0,29.83,NE,46,0.0,0.0,75,0.00,,CLR,0.00,VWS V14.01,2013-04-23 06:21:00,
2013-04-23 02:26:00,28.9,22.0,29.83,NE,46,0.0,0.0,75,0.00,,CLR,0.00,VWS V14.01,2013-04-23 06:26:00,
2013-04-23 02:31:00,29.1,22.2,29.83,NE,46,0.0,0.0,75,0.00,,CLR,0.00,VWS V14.01,2013-04-23 06:31:00,
2013-04-23 02:36:00,29.1,22.2,29.83,NE,46,0.0,0.0,75,0.00,,CLR,0.00,VWS V14.01,2013-04-23 06:36:00,
2013-04-23 02:41:00,29.1,22.2,29.83,NE,46,0.0,0.0,75,0.00,,CLR,0.00,VWS V14.01,2013-04-23 06:41:00,
2013-04-23 02:46:00,29.1,22.5,29.83,NE,46,0.0,0.0,76,0.00,,CLR,0.00,VWS V14.01,2013-04-23 06:46:00,
2013-04-23 02:51:00,29.1,22.5,29.83,NE,46,0.0,0.0,76,0.00,,CLR,0.00,VWS V14.01,2013-04-23 06:51:00,
2013-04-23 02:56:00,29.1,22.5,29.83,NE,46,0.0,0.0,76,0.00,,CLR,0.00,VWS V14.01,2013-04-23 06:56:00,
2013-04-23 03:01:00,29.1,22.5,29.83,NE,46,0.0,0.0,76,0.00,,CLR,0.00,VWS V14.01,2013-04-23 07:01:00,
2013-04-23 03:06:00,29.1,22.5,29.83,NE,46,0.0,0.0,76,0.00,,CLR,0.00,VWS V14.01,2013-04-23 07:06:00,
2013-04-23 03:11:00,28.9,22.3,29.83,NE,46,0.0,0.0,76,0.00,,CLR,0.00,VWS V14.01,2013-04-23 07:11:00,
2013-04-23 03:16:00,28.9,22.6,29.83,NE,46,0.0,0.0,77,0.00,,CLR,0.00,VWS V14.01,2013-04-23 07:16:00,
2013-04-23 03:21:00,28.9,22.6,29.80,NE,46,0.0,0.0,77,0.00,,CLR,0.00,VWS V14.01,2013-04-23 07:21:00,
2013-04-23 03:26:00,28.8,22.5,29.80,NE,46,0.0,0.0,77,0.00,,CLR,0.00,VWS V14.01,2013-04-23 07:26:00,
2013-04-23 03:31:00,28.8,22.5,29.80,NE,46,0.0,0.0,77,0.00,,CLR,0.00,VWS V14.01,2013-04-23 07:31:00,
2013-04-23 03:36:00,28.8,22.5,29.80,NE,46,0.0,0.0,77,0.00,,CLR,0.00,VWS V14.01,2013-04-23 07:36:00,
2013-04-23 03:41:00,28.6,22.3,29.80,NE,46,0.0,0.0,77,0.00,,CLR,0.00,VWS V14.01,2013-04-23 07:41:00,
2013-04-23 03:46:00,28.6,22.3,29.80,NE,46,0.0,0.0,77,0.00,,CLR,0.00,VWS V14.01,2013-04-23 07:46:00,
2013-04-23 03:51:00,28.6,22.6,29.80,NE,46,0.0,0.0,78,0.00,,CLR,0.00,VWS V14.01,2013-04-23 07:51:00,
2013-04-23 03:56:00,28.6,22.6,29.80,NE,46,0.0,0.0,78,0.00,,CLR,0.00,VWS V14.01,2013-04-23 07:56:00,
2013-04-23 04:01:00,28.6,22.6,29.80,NE,46,0.0,0.0,78,0.00,,CLR,0.00,VWS V14.01,2013-04-23 08:01:00,
2013-04-23 04:06:00,28.6,22.6,29.80,NE,46,0.0,0.0,78,0.00,,CLR,0.00,VWS V14.01,2013-04-23 08:06:00,
2013-04-23 04:11:00,28.6,22.6,29.80,NE,46,0.0,0.0,78,0.00,,CLR,0.00,VWS V14.01,2013-04-23 08:11:00,
2013-04-23 04:16:00,28.6,22.6,29.80,NE,46,0.0,0.0,78,0.00,,CLR,0.00,VWS V14.01,2013-04-23 08:16:00,
2013-04-23 04:21:00,28.6,22.6,29.80,NE,46,0.0,0.0,78,0.00,,CLR,0.00,VWS V14.01,2013-04-23 08:21:00,
2013-04-23 04:26:00,28.6,22.6,29.80,NE,46,0.0,0.0,78,0.00,,CLR,0.00,VWS V14.01,2013-04-23 08:26:00,
2013-04-23 04:31:00,28.4,22.7,29.80,NE,46,0.0,0.0,79,0.00,,CLR,0.00,VWS V14.01,2013-04-23 08:31:00,
2013-04-23 04:36:00,28.2,22.6,29.77,NE,46,0.0,0.0,79,0.00,,CLR,0.00,VWS V14.01,2013-04-23 08:36:00,
2013-04-23 04:41:00,28.2,22.6,29.77,NE,46,0.0,0.0,79,0.00,,CLR,0.00,VWS V14.01,2013-04-23 08:41:00,
2013-04-23 04:46:00,28.0,22.4,29.77,NE,46,0.0,0.0,79,0.00,,CLR,0.00,VWS V14.01,2013-04-23 08:46:00,
2013-04-23 04:51:00,28.0,22.4,29.77,NE,46,0.0,0.0,79,0.00,,CLR,0.00,VWS V14.01,2013-04-23 08:51:00,
2013-04-23 04:56:00,28.0,22.4,29.77,NE,46,0.0,0.0,79,0.00,,CLR,0.00,VWS V14.01,2013-04-23 08:56:00,
2013-04-23 05:01:00,28.0,22.4,29.77,NE,46,0.0,0.0,79,0.00,,CLR,0.00,VWS V14.01,2013-04-23 09:01:00,
2013-04-23 05:06:00,27.9,22.5,29.77,NE,46,0.0,0.0,80,0.00,,CLR,0.00,VWS V14.01,2013-04-23 09:06:00,
2013-04-23 05:11:00,27.9,22.5,29.77,NE,46,0.0,0.0,80,0.00,,CLR,0.00,VWS V14.01,2013-04-23 09:11:00,
2013-04-23 05:16:00,27.9,22.5,29.77,NE,46,0.0,0.0,80,0.00,,CLR,0.00,VWS V14.01,2013-04-23 09:16:00,
2013-04-23 05:21:00,27.9,22.5,29.77,NE,46,0.0,0.0,80,0.00,,CLR,0.00,VWS V14.01,2013-04-23 09:21:00,
2013-04-23 05:26:00,27.9,22.5,29.77,NE,46,0.0,0.0,80,0.00,,CLR,0.00,VWS V14.01,2013-04-23 09:26:00,
2013-04-23 05:31:00,27.9,22.5,29.77,NE,46,0.0,0.0,80,0.00,,CLR,0.00,VWS V14.01,2013-04-23 09:31:00,
2013-04-23 05:36:00,27.9,22.5,29.77,NE,46,0.0,0.0,80,0.00,,CLR,0.00,VWS V14.01,2013-04-23 09:36:00,
2013-04-23 05:41:00,27.9,22.5,29.77,NE,46,0.0,0.0,80,0.00,,CLR,0.00,VWS V14.01,2013-04-23 09:41:00,
2013-04-23 05:46:00,27.9,22.5,29.77,NE,46,0.0,0.0,80,0.00,,CLR,0.00,VWS V14.01,2013-04-23 09:46:00,
2013-04-23 05:51:00,28.0,22.7,29.77,NE,46,0.0,0.0,80,0.00,,CLR,0.00,VWS V14.01,2013-04-23 09:51:00,
2013-04-23 05:56:00,28.0,22.7,29.77,NE,46,0.0,0.0,80,0.00,,CLR,0.00,VWS V14.01,2013-04-23 09:56:00,
2013-04-23 06:01:00,28.2,23.1,29.77,NE,46,0.0,0.0,81,0.00,,CLR,0.00,VWS V14.01,2013-04-23 10:01:00,
2013-04-23 06:06:00,28.2,23.1,29.77,NE,46,0.0,0.0,81,0.00,,CLR,0.00,VWS V14.01,2013-04-23 10:06:00,
2013-04-23 06:11:00,28.4,23.3,29.77,NE,46,0.0,0.0,81,0.00,,CLR,0.00,VWS V14.01,2013-04-23 10:11:00,
2013-04-23 06:16:00,28.4,23.3,29.77,NE,46,0.0,0.0,81,0.00,,CLR,0.00,VWS V14.01,2013-04-23 10:16:00,
2013-04-23 06:21:00,28.6,23.5,29.77,NE,46,0.0,0.0,81,0.00,,BKN025,0.00,VWS V14.01,2013-04-23 10:21:00,
2013-04-23 06:26:00,28.9,23.9,29.77,NE,46,0.0,0.0,81,0.00,,BKN025,0.00,VWS V14.01,2013-04-23 10:26:00,
2013-04-23 06:31:00,29.1,24.0,29.77,NE,46,0.0,0.0,81,0.00,,BKN025,0.00,VWS V14.01,2013-04-23 10:31:00,
2013-04-23 06:36:00,29.5,24.7,29.77,NE,46,0.0,0.0,82,0.00,,BKN025,0.00,VWS V14.01,2013-04-23 10:36:00,
2013-04-23 06:41:00,29.7,24.9,29.77,NE,46,0.0,0.0,82,0.00,,BKN025,0.00,VWS V14.01,2013-04-23 10:41:00,
2013-04-23 06:46:00,30.2,25.7,29.77,NE,46,0.0,0.0,83,0.00,,BKN025,0.00,VWS V14.01,2013-04-23 10:46:00,
2013-04-23 06:51:00,30.7,26.2,29.77,NE,46,0.0,0.0,83,0.00,,BKN025,0.00,VWS V14.01,2013-04-23 10:51:00,
2013-04-23 06:56:00,31.1,26.5,29.77,NE,46,0.0,0.0,83,0.00,,BKN025,0.00,VWS V14.01,2013-04-23 10:56:00,
2013-04-23 07:01:00,31.5,26.9,29.77,NE,46,0.0,0.0,83,0.00,,OVC023,0.00,VWS V14.01,2013-04-23 11:01:00,
2013-04-23 07:06:00,31.8,27.5,29.77,NE,46,0.0,0.0,84,0.00,,OVC023,0.00,VWS V14.01,2013-04-23 11:06:00,
2013-04-23 07:11:00,32.2,27.9,29.77,NE,46,0.0,0.0,84,0.00,,OVC023,0.00,VWS V14.01,2013-04-23 11:11:00,
2013-04-23 07:16:00,32.4,28.1,29.77,NE,46,0.0,0.0,84,0.00,,OVC023,0.00,VWS V14.01,2013-04-23 11:16:00,
2013-04-23 07:21:00,32.5,28.5,29.77,NE,46,0.0,0.0,85,0.00,,OVC023,0.00,VWS V14.01,2013-04-23 11:21:00,
2013-04-23 07:26:00,32.9,28.9,29.77,NE,46,0.0,0.0,85,0.00,,OVC023,0.00,VWS V14.01,2013-04-23 11:26:00,
2013-04-23 07:31:00,33.3,29.5,29.77,NE,46,0.0,0.0,86,0.00,,OVC023,0.00,VWS V14.01,2013-04-23 11:31:00,
2013-04-23 07:36:00,33.4,29.7,29.80,ENE,58,0.0,0.0,86,0.00,,OVC023,0.00,VWS V14.01,2013-04-23 11:36:00,
2013-04-23 07:41:00,33.6,29.9,29.80,ENE,59,0.0,0.0,86,0.00,,OVC023,0.00,VWS V14.01,2013-04-23 11:41:00,
2013-04-23 07:46:00,34.0,30.2,29.80,ENE,60,0.0,0.0,86,0.00,,OVC023,0.00,VWS V14.01,2013-04-23 11:46:00,
2013-04-23 07:51:00,34.3,30.6,29.77,NE,49,0.0,0.0,86,0.00,,OVC023,0.00,VWS V14.01,2013-04-23 11:51:00,
2013-04-23 07:56:00,34.9,31.4,29.77,ENE,65,0.0,0.0,87,0.00,,OVC023,0.00,VWS V14.01,2013-04-23 11:56:00,
2013-04-23 08:01:00,35.1,31.6,29.77,ENE,66,0.0,0.0,87,0.00,,OVC021,0.00,VWS V14.01,2013-04-23 12:01:00,
2013-04-23 08:06:00,35.4,31.9,29.77,ENE,62,0.0,0.0,87,0.00,,OVC021,0.00,VWS V14.01,2013-04-23 12:06:00,
2013-04-23 08:11:00,35.6,31.8,29.77,NE,40,0.0,0.0,86,0.00,,OVC021,0.00,VWS V14.01,2013-04-23 12:11:00,
2013-04-23 08:16:00,35.8,32.0,29.77,NNE,24,0.0,0.0,86,0.00,,OVC021,0.00,VWS V14.01,2013-04-23 12:16:00,
2013-04-23 08:21:00,36.1,32.4,29.77,NE,42,0.0,0.0,86,0.00,,OVC021,0.00,VWS V14.01,2013-04-23 12:21:00,
2013-04-23 08:26:00,36.3,32.2,29.77,NE,40,0.0,0.0,85,0.00,,OVC021,0.00,VWS V14.01,2013-04-23 12:26:00,
2013-04-23 08:31:00,36.9,32.8,29.77,NNE,17,0.0,0.0,85,0.00,,OVC021,0.00,VWS V14.01,2013-04-23 12:31:00,
2013-04-23 08:36:00,37.2,33.1,29.77,ENE,59,0.0,0.0,85,0.00,,OVC021,0.00,VWS V14.01,2013-04-23 12:36:00,
2013-04-23 08:41:00,37.8,33.4,29.77,NE,44,0.0,0.0,84,0.00,,OVC021,0.00,VWS V14.01,2013-04-23 12:41:00,
2013-04-23 08:46:00,38.3,33.6,29.77,NNE,25,0.0,0.0,83,0.00,,OVC021,0.00,VWS V14.01,2013-04-23 12:46:00,
2013-04-23 08:51:00,38.8,34.1,29.77,NNE,16,0.0,0.0,83,0.00,,OVC021,0.00,VWS V14.01,2013-04-23 12:51:00,
2013-04-23 08:56:00,39.4,34.3,29.77,South,182,7.2,7.2,82,0.00,,OVC021,0.00,VWS V14.01,2013-04-23 12:56:00,
2013-04-23 09:01:00,39.7,34.4,29.77,East,81,0.0,0.0,81,0.00,,OVC021,0.00,VWS V14.01,2013-04-23 13:01:00,
2013-04-23 09:06:00,40.3,34.3,29.77,NE,55,5.4,5.4,79,0.00,,OVC021,0.00,VWS V14.01,2013-04-23 13:06:00,
2013-04-23 09:11:00,40.8,34.5,29.77,East,100,7.2,7.2,78,0.00,,OVC021,0.00,VWS V14.01,2013-04-23 13:11:00,
2013-04-23 09:16:00,41.2,34.5,29.77,ENE,63,0.0,0.0,77,0.00,,OVC021,0.00,VWS V14.01,2013-04-23 13:16:00,
2013-04-23 09:21:00,41.4,34.0,29.74,ENE,63,7.2,7.2,75,0.00,,OVC021,0.00,VWS V14.01,2013-04-23 13:21:00,
2013-04-23 09:26:00,41.5,33.5,29.74,East,93,11.6,11.6,73,0.00,,OVC021,0.00,VWS V14.01,2013-04-23 13:26:00,
2013-04-23 09:31:00,42.1,33.4,29.74,NE,54,7.2,7.2,71,0.00,,OVC021,0.00,VWS V14.01,2013-04-23 13:31:00,
2013-04-23 09:36:00,42.3,32.8,29.74,NNE,22,8.1,8.1,69,0.00,,OVC021,0.00,VWS V14.01,2013-04-23 13:36:00,
2013-04-23 09:41:00,42.3,32.1,29.74,ENE,65,6.3,6.3,67,0.00,,OVC021,0.00,VWS V14.01,2013-04-23 13:41:00,
2013-04-23 09:46:00,42.3,31.4,29.74,ENE,78,10.7,10.7,65,0.00,,OVC021,0.00,VWS V14.01,2013-04-23 13:46:00,
2013-04-23 09:51:00,42.3,31.0,29.74,ESE,106,4.5,4.5,64,0.00,,OVC021,0.00,VWS V14.01,2013-04-23 13:51:00,
2013-04-23 09:56:00,42.1,30.4,29.74,East,84,8.1,8.1,63,0.00,,OVC021,0.00,VWS V14.01,2013-04-23 13:56:00,
2013-04-23 10:01:00,42.3,30.6,29.74,East,81,6.3,6.3,63,0.00,,OVC019,0.00,VWS V14.01,2013-04-23 14:01:00,
2013-04-23 10:06:00,42.4,30.8,29.74,ENE,60,6.3,6.3,63,0.00,,OVC019,0.00,VWS V14.01,2013-04-23 14:06:00,
2013-04-23 10:11:00,42.4,30.0,29.74,East,94,0.0,0.0,61,0.00,,OVC019,0.00,VWS V14.01,2013-04-23 14:11:00,
2013-04-23 10:16:00,42.4,30.4,29.74,ENE,70,5.4,5.4,62,0.00,,OVC019,0.00,VWS V14.01,2013-04-23 14:16:00,
2013-04-23 10:21:00,42.6,30.1,29.74,NNE,31,6.3,6.3,61,0.00,,OVC019,0.00,VWS V14.01,2013-04-23 14:21:00,
2013-04-23 10:26:00,42.8,30.3,29.74,North,353,8.1,8.1,61,0.00,,OVC019,0.00,VWS V14.01,2013-04-23 14:26:00,
2013-04-23 10:31:00,42.6,30.1,29.74,East,89,7.2,7.2,61,0.00,,OVC019,0.00,VWS V14.01,2013-04-23 14:31:00,
2013-04-23 10:36:00,42.4,29.5,29.74,East,99,0.0,3.1,60,0.00,,OVC019,0.00,VWS V14.01,2013-04-23 14:36:00,
2013-04-23 10:41:00,42.4,29.5,29.74,East,87,7.2,7.2,60,0.00,,OVC019,0.00,VWS V14.01,2013-04-23 14:41:00,
2013-04-23 10:46:00,42.8,29.9,29.74,ENE,73,5.4,5.4,60,0.00,,OVC019,0.00,VWS V14.01,2013-04-23 14:46:00,
2013-04-23 10:51:00,42.8,29.9,29.74,ENE,70,6.3,6.3,60,0.00,,OVC019,0.00,VWS V14.01,2013-04-23 14:51:00,
2013-04-23 10:56:00,42.8,29.9,29.74,ENE,78,8.1,8.1,60,0.00,,OVC019,0.00,VWS V14.01,2013-04-23 14:56:00,
2013-04-23 11:01:00,42.8,29.9,29.74,ENE,59,11.6,11.6,60,0.00,,OVC019,0.00,VWS V14.01,2013-04-23 15:01:00,
2013-04-23 11:06:00,43.0,30.1,29.71,ESE,117,0.0,3.1,60,0.00,,OVC019,0.00,VWS V14.01,2013-04-23 15:06:00,
2013-04-23 11:11:00,43.3,30.4,29.71,ENE,75,4.5,4.5,60,0.00,,OVC019,0.00,VWS V14.01,2013-04-23 15:11:00,
2013-04-23 11:16:00,43.3,30.4,29.71,ENE,73,7.2,7.2,60,0.00,,OVC019,0.00,VWS V14.01,2013-04-23 15:16:00,
2013-04-23 11:21:00,43.3,30.4,29.71,East,87,6.3,6.3,60,0.00,,OVC019,0.00,VWS V14.01,2013-04-23 15:21:00,
2013-04-23 11:26:00,43.5,30.6,29.71,NE,49,9.8,9.8,60,0.00,,OVC019,0.00,VWS V14.01,2013-04-23 15:26:00,
2013-04-23 11:31:00,43.5,30.6,29.71,NNE,28,7.2,7.2,60,0.00,,OVC019,0.00,VWS V14.01,2013-04-23 15:31:00,
2013-04-23 11:36:00,43.9,30.9,29.71,ENE,65,8.1,8.1,60,0.00,,OVC019,0.00,VWS V14.01,2013-04-23 15:36:00,
2013-04-23 11:41:00,44.2,31.7,29.71,ENE,59,0.0,0.0,61,0.00,,OVC019,0.00,VWS V14.01,2013-04-23 15:41:00,
2013-04-23 11:46:00,44.4,31.0,29.71,NE,38,6.3,6.3,59,0.00,,OVC019,0.00,VWS V14.01,2013-04-23 15:46:00,
2013-04-23 11:51:00,44.6,31.2,29.71,NE,55,8.1,8.1,59,0.00,,OVC019,0.00,VWS V14.01,2013-04-23 15:51:00,
2013-04-23 11:56:00,44.4,30.6,29.71,NNE,32,9.8,9.8,58,0.00,,OVC019,0.00,VWS V14.01,2013-04-23 15:56:00,
2013-04-23 12:01:00,44.6,30.8,29.71,ENE,76,6.3,6.3,58,0.00,,OVC017,0.00,VWS V14.01,2013-04-23 16:01:00,
2013-04-23 12:06:00,44.6,30.8,29.71,East,92,7.2,7.2,58,0.00,,OVC017,0.00,VWS V14.01,2013-04-23 16:06:00,
2013-04-23 12:11:00,44.8,30.9,29.71,East,89,5.4,5.4,58,0.00,,OVC017,0.00,VWS V14.01,2013-04-23 16:11:00,
2013-04-23 12:16:00,45.0,31.1,29.71,SSE,157,7.2,7.2,58,0.00,,OVC017,0.00,VWS V14.01,2013-04-23 16:16:00,
2013-04-23 12:21:00,45.0,30.7,29.71,ESE,120,6.3,6.3,57,0.00,,OVC017,0.00,VWS V14.01,2013-04-23 16:21:00,
2013-04-23 12:26:00,45.0,30.7,29.71,ENE,76,8.9,8.9,57,0.00,,OVC017,0.00,VWS V14.01,2013-04-23 16:26:00,
2013-04-23 12:31:00,44.8,30.5,29.71,East,79,9.8,9.8,57,0.00,,OVC017,0.00,VWS V14.01,2013-04-23 16:31:00,
2013-04-23 12:36:00,44.6,30.3,29.68,ENE,59,6.3,6.3,57,0.00,,OVC017,0.00,VWS V14.01,2013-04-23 16:36:00,
2013-04-23 12:41:00,44.4,30.6,29.68,ENE,63,7.2,7.2,58,0.00,,OVC017,0.00,VWS V14.01,2013-04-23 16:41:00,
2013-04-23 12:46:00,44.1,30.2,29.68,NNE,30,9.8,9.8,58,0.00,,OVC017,0.00,VWS V14.01,2013-04-23 16:46:00,
2013-04-23 12:51:00,43.7,29.9,29.68,SW,226,8.1,8.1,58,0.00,,OVC017,0.00,VWS V14.01,2013-04-23 16:51:00,
2013-04-23 12:56:00,43.7,30.3,29.68,ESE,102,6.3,6.3,59,0.00,,OVC017,0.00,VWS V14.01,2013-04-23 16:56:00,
2013-04-23 13:01:00,43.9,30.5,29.68,East,87,7.2,7.2,59,0.00,,OVC017,0.00,VWS V14.01,2013-04-23 17:01:00,
2013-04-23 13:06:00,43.7,30.3,29.68,East,79,6.3,6.3,59,0.00,,OVC017,0.00,VWS V14.01,2013-04-23 17:06:00,
2013-04-23 13:11:00,43.7,30.7,29.68,ENE,78,6.3,6.3,60,0.00,,OVC017,0.00,VWS V14.01,2013-04-23 17:11:00,
2013-04-23 13:16:00,43.3,30.4,29.68,East,80,7.2,7.2,60,0.00,,OVC017,0.00,VWS V14.01,2013-04-23 17:16:00,
2013-04-23 13:21:00,43.3,30.8,29.68,East,94,4.5,4.5,61,0.00,,OVC017,0.00,VWS V14.01,2013-04-23 17:21:00,
2013-04-23 13:26:00,43.3,30.8,29.68,NE,40,6.3,6.3,61,0.00,,OVC017,0.00,VWS V14.01,2013-04-23 17:26:00,
2013-04-23 13:31:00,43.0,30.1,29.68,NE,45,7.2,7.2,60,0.00,,OVC017,0.00,VWS V14.01,2013-04-23 17:31:00,
2013-04-23 13:36:00,42.8,30.3,29.65,East,91,6.3,6.3,61,0.00,,OVC017,0.00,VWS V14.01,2013-04-23 17:36:00,
2013-04-23 13:41:00,42.8,30.7,29.65,NE,35,8.1,8.1,62,0.00,,OVC017,0.00,VWS V14.01,2013-04-23 17:41:00,
2013-04-23 13:46:00,42.8,30.7,29.65,East,81,8.1,8.1,62,0.00,,OVC017,0.00,VWS V14.01,2013-04-23 17:46:00,
2013-04-23 13:51:00,42.8,31.1,29.65,East,96,7.2,7.2,63,0.00,,OVC017,0.00,VWS V14.01,2013-04-23 17:51:00,
2013-04-23 13:56:00,42.8,31.1,29.65,NE,45,10.7,10.7,63,0.00,,OVC017,0.00,VWS V14.01,2013-04-23 17:56:00,
2013-04-23 14:01:00,42.8,31.5,29.65,East,89,8.9,8.9,64,0.00,,OVC017,0.00,VWS V14.01,2013-04-23 18:01:00,
2013-04-23 14:06:00,42.8,31.9,29.65,ESE,105,4.5,4.5,65,0.00,,OVC017,0.00,VWS V14.01,2013-04-23 18:06:00,
2013-04-23 14:11:00,42.8,31.9,29.65,ENE,69,9.8,9.8,65,0.00,,OVC017,0.00,VWS V14.01,2013-04-23 18:11:00,
2013-04-23 14:16:00,42.6,31.7,29.65,NE,39,5.4,5.4,65,0.00,,OVC017,0.00,VWS V14.01,2013-04-23 18:16:00,
2013-04-23 14:21:00,42.6,32.1,29.62,ENE,74,5.4,5.4,66,0.00,,OVC017,0.00,VWS V14.01,2013-04-23 18:21:00,
2013-04-23 14:26:00,42.6,32.4,29.62,East,86,6.3,6.3,67,0.00,,OVC017,0.00,VWS V14.01,2013-04-23 18:26:00,
2013-04-23 14:31:00,42.6,32.4,29.62,ENE,68,10.7,10.7,67,0.00,,OVC017,0.00,VWS V14.01,2013-04-23 18:31:00,
2013-04-23 14:36:00,42.4,32.3,29.62,East,88,0.0,0.0,67,0.00,,OVC017,0.00,VWS V14.01,2013-04-23 18:36:00,
2013-04-23 14:41:00,42.3,32.5,29.62,NNE,18,6.3,6.3,68,0.00,,OVC013,0.00,VWS V14.01,2013-04-23 18:41:00,
2013-04-23 14:46:00,42.3,32.5,29.62,ENE,58,7.2,7.2,68,0.00,,OVC013,0.00,VWS V14.01,2013-04-23 18:46:00,
2013-04-23 14:51:00,41.9,32.1,29.62,NE,37,5.4,5.4,68,0.00,,OVC013,0.00,VWS V14.01,2013-04-23 18:51:00,
2013-04-23 14:56:00,41.7,32.3,29.62,NE,36,0.0,0.0,69,0.00,,OVC013,0.00,VWS V14.01,2013-04-23 18:56:00,
2013-04-23 15:01:00,41.5,32.1,29.62,NE,51,8.1,8.1,69,0.00,,OVC013,0.00,VWS V14.01,2013-04-23 19:01:00,
2013-04-23 15:06:00,41.4,32.3,29.59,East,82,5.4,5.4,70,0.00,,OVC013,0.00,VWS V14.01,2013-04-23 19:06:00,
2013-04-23 15:11:00,41.2,32.5,29.59,ENE,61,8.1,8.1,71,0.00,,OVC013,0.00,VWS V14.01,2013-04-23 19:11:00,
2013-04-23 15:16:00,41.2,32.8,29.59,East,82,7.2,7.2,72,0.00,,OVC013,0.00,VWS V14.01,2013-04-23 19:16:00,
2013-04-23 15:21:00,41.0,32.7,29.59,ENE,58,9.8,9.8,72,0.00,,OVC013,0.00,VWS V14.01,2013-04-23 19:21:00,
2013-04-23 15:26:00,41.0,33.0,29.59,NE,56,7.2,7.2,73,0.00,,OVC013,0.00,VWS V14.01,2013-04-23 19:26:00,
2013-04-23 15:31:00,40.8,33.2,29.59,East,88,5.4,5.4,74,0.00,,OVC013,0.00,VWS V14.01,2013-04-23 19:31:00,
2013-04-23 15:36:00,40.6,33.0,29.59,NE,50,6.3,6.3,74,0.00,,OVC013,0.00,VWS V14.01,2013-04-23 19:36:00,
2013-04-23 15:41:00,40.6,33.3,29.59,ENE,71,5.4,5.4,75,0.00,,OVC013,0.00,VWS V14.01,2013-04-23 19:41:00,
2013-04-23 15:46:00,40.6,33.7,29.59,NE,39,0.0,0.0,76,0.00,,OVC013,0.00,VWS V14.01,2013-04-23 19:46:00,
2013-04-23 15:51:00,40.5,33.8,29.56,ENE,65,0.0,4.0,77,0.00,,OVC013,0.00,VWS V14.01,2013-04-23 19:51:00,
2013-04-23 15:56:00,40.3,33.7,29.56,NE,56,6.3,6.3,77,0.00,,OVC013,0.00,VWS V14.01,2013-04-23 19:56:00,
2013-04-23 16:01:00,40.3,34.0,29.56,NNE,31,4.5,4.5,78,0.00,,,0.00,VWS V14.01,2013-04-23 20:01:00,
2013-04-23 16:06:00,40.1,34.1,29.56,ENE,78,0.0,0.0,79,0.00,,,0.00,VWS V14.01,2013-04-23 20:06:00,
2013-04-23 16:11:00,40.1,34.4,29.56,ENE,63,0.0,0.0,80,0.00,,,0.00,VWS V14.01,2013-04-23 20:11:00,
2013-04-23 16:16:00,39.9,34.6,29.56,ENE,74,0.0,3.6,81,0.00,,,0.00,VWS V14.01,2013-04-23 20:16:00,
2013-04-23 16:21:00,39.9,34.9,29.56,NE,46,5.4,5.4,82,0.00,,,0.00,VWS V14.01,2013-04-23 20:21:00,
2013-04-23 16:26:00,40.1,35.4,29.56,East,79,8.1,8.1,83,0.00,,,0.00,VWS V14.01,2013-04-23 20:26:00,
2013-04-23 16:31:00,39.9,35.2,29.56,NE,44,7.2,7.2,83,0.00,,,0.00,VWS V14.01,2013-04-23 20:31:00,
2013-04-23 16:36:00,39.9,35.5,29.56,NNE,26,6.3,6.3,84,0.00,,,0.00,VWS V14.01,2013-04-23 20:36:00,
2013-04-23 16:41:00,39.9,35.5,29.56,East,81,7.2,7.2,84,0.00,,,0.00,VWS V14.01,2013-04-23 20:41:00,
2013-04-23 16:46:00,39.9,35.8,29.56,ENE,78,4.5,4.5,85,0.00,,,0.00,VWS V14.01,2013-04-23 20:46:00,
2013-04-23 16:51:00,39.9,35.8,29.53,East,82,5.4,5.4,85,0.00,,,0.00,VWS V14.01,2013-04-23 20:51:00,
2013-04-23 16:56:00,39.9,35.8,29.53,ESE,118,8.1,8.1,85,0.00,,,0.00,VWS V14.01,2013-04-23 20:56:00,
2013-04-23 17:01:00,39.9,36.1,29.53,ENE,63,0.0,0.0,86,0.00,,OVC007,0.00,VWS V14.01,2013-04-23 21:01:00,
2013-04-23 17:06:00,39.9,36.1,29.53,NE,36,0.0,0.0,86,0.00,,OVC007,0.00,VWS V14.01,2013-04-23 21:06:00,
2013-04-23 17:11:00,39.9,36.1,29.53,NE,38,0.0,0.0,86,0.00,,OVC007,0.00,VWS V14.01,2013-04-23 21:11:00,
2013-04-23 17:16:00,39.9,36.1,29.53,ENE,74,6.3,6.3,86,0.00,,OVC007,0.00,VWS V14.01,2013-04-23 21:16:00,
2013-04-23 17:21:00,39.9,36.4,29.53,ENE,69,0.0,0.0,87,0.00,,OVC007,0.00,VWS V14.01,2013-04-23 21:21:00,
2013-04-23 17:26:00,39.9,36.4,29.53,NE,45,0.0,2.7,87,0.00,,OVC007,0.00,VWS V14.01,2013-04-23 21:26:00,
2013-04-23 17:31:00,39.9,36.4,29.53,ENE,65,0.0,0.0,87,0.00,,OVC007,0.00,VWS V14.01,2013-04-23 21:31:00,
2013-04-23 17:36:00,39.9,36.4,29.15,ENE,57,0.0,0.0,87,0.00,,OVC007,0.00,VWS V14.01,2013-04-23 21:36:00,
2013-04-23 17:41:00,39.9,36.4,29.15,ENE,59,0.0,0.0,87,0.00,,OVC007,0.00,VWS V14.01,2013-04-23 21:41:00,
2013-04-23 17:46:00,39.9,36.7,29.15,ENE,64,0.0,0.0,88,0.00,,OVC007,0.00,VWS V14.01,2013-04-23 21:46:00,
2013-04-23 17:51:00,40.1,36.8,17.72,ENE,78,0.0,2.7,88,0.00,,OVC007,0.00,VWS V14.01,2013-04-23 21:51:00,
2013-04-23 17:56:00,40.1,36.8,17.72,ENE,57,0.0,2.2,88,0.00,,OVC007,0.00,VWS V14.01,2013-04-23 21:56:00,
2013-04-23 18:01:00,40.3,37.0,17.72,ENE,57,0.0,0.0,88,0.00,,-RA,0.00,VWS V14.01,2013-04-23 22:01:00,
2013-04-23 18:06:00,40.3,37.0,17.72,NE,43,0.0,0.0,88,0.00,,-RA,0.00,VWS V14.01,2013-04-23 22:06:00,
2013-04-23 18:11:00,40.3,37.0,17.72,ENE,73,0.0,0.0,88,0.00,,-RA,0.00,VWS V14.01,2013-04-23 22:11:00,
2013-04-23 18:16:00,40.3,37.3,17.72,ENE,73,0.0,0.0,89,0.00,,-RA,0.00,VWS V14.01,2013-04-23 22:16:00,
2013-04-23 18:21:00,40.3,37.3,17.72,ENE,73,0.0,0.0,89,0.00,,-RA,0.00,VWS V14.01,2013-04-23 22:21:00,
2013-04-23 18:26:00,40.5,37.5,17.72,ENE,73,0.0,0.0,89,0.00,,-RA,0.00,VWS V14.01,2013-04-23 22:26:00,
2013-04-23 18:31:00,40.5,37.5,17.72,ENE,73,0.0,0.0,89,0.00,,-RA,0.00,VWS V14.01,2013-04-23 22:31:00,
2013-04-23 18:36:00,40.6,37.9,17.72,ENE,73,0.0,0.0,90,0.00,,-RA,0.00,VWS V14.01,2013-04-23 22:36:00,
2013-04-23 18:41:00,40.6,37.9,17.72,ENE,73,0.0,0.0,90,0.00,,-RA,0.00,VWS V14.01,2013-04-23 22:41:00,
2013-04-23 18:46:00,40.6,37.9,17.72,ENE,74,0.0,0.0,90,0.00,,-RA,0.00,VWS V14.01,2013-04-23 22:46:00,
2013-04-23 18:51:00,40.6,37.9,17.72,ENE,74,0.0,0.0,90,0.00,,-RA,0.00,VWS V14.01,2013-04-23 22:51:00,
2013-04-23 18:56:00,40.6,37.9,17.72,ENE,57,0.0,0.0,90,0.00,,-RA,0.00,VWS V14.01,2013-04-23 22:56:00,
2013-04-23 19:01:00,40.6,37.9,17.72,ENE,57,0.0,0.0,90,0.00,,,0.00,VWS V14.01,2013-04-23 23:01:00,
2013-04-23 19:06:00,40.6,37.9,17.72,ENE,60,0.0,0.0,90,0.00,,,0.00,VWS V14.01,2013-04-23 23:06:00,
2013-04-23 19:11:00,40.8,38.4,17.72,ENE,57,0.0,0.0,91,0.00,,,0.00,VWS V14.01,2013-04-23 23:11:00,
2013-04-23 19:16:00,40.8,38.4,17.72,ENE,57,0.0,0.0,91,0.00,,,0.00,VWS V14.01,2013-04-23 23:16:00,
2013-04-23 19:21:00,40.8,38.4,17.72,ENE,57,0.0,0.0,91,0.00,,,0.00,VWS V14.01,2013-04-23 23:21:00,
2013-04-23 19:26:00,40.8,38.4,17.72,ENE,60,0.0,0.0,91,0.00,,,0.00,VWS V14.01,2013-04-23 23:26:00,
2013-04-23 19:31:00,40.8,38.4,17.72,NE,54,0.0,0.0,91,0.00,,,0.00,VWS V14.01,2013-04-23 23:31:00,
2013-04-23 19:36:00,41.0,38.6,17.72,NE,54,0.0,0.0,91,0.00,,,0.00,VWS V14.01,2013-04-23 23:36:00,
2013-04-23 19:41:00,41.0,38.6,17.72,NNE,17,0.0,0.0,91,0.00,,,0.00,VWS V14.01,2013-04-23 23:41:00,
2013-04-23 19:46:00,41.0,38.6,17.72,East,79,0.0,0.0,91,0.00,,,0.00,VWS V14.01,2013-04-23 23:46:00,
2013-04-23 19:51:00,41.0,38.6,17.72,ENE,76,0.0,0.0,91,0.00,,,0.00,VWS V14.01,2013-04-23 23:51:00,
2013-04-23 19:56:00,41.0,38.6,17.72,ENE,76,0.0,0.0,91,0.00,,,0.00,VWS V14.01,2013-04-23 23:56:00,
2013-04-23 20:01:00,41.0,38.6,17.72,ENE,72,0.0,0.0,91,0.00,,OVC007,0.00,VWS V14.01,2013-04-24 00:01:00,
2013-04-23 20:06:00,41.0,38.6,17.72,NE,40,0.0,0.0,91,0.00,,OVC007,0.00,VWS V14.01,2013-04-24 00:06:00,
2013-04-23 20:11:00,41.0,38.9,17.72,NE,39,0.0,0.0,92,0.00,,OVC007,0.00,VWS V14.01,2013-04-24 00:11:00,
2013-04-23 20:16:00,41.0,38.9,17.72,NE,39,0.0,0.0,92,0.00,,OVC007,0.00,VWS V14.01,2013-04-24 00:16:00,
2013-04-23 20:21:00,41.0,38.9,17.72,NE,49,0.0,0.0,92,0.00,,OVC007,0.00,VWS V14.01,2013-04-24 00:21:00,
2013-04-23 20:26:00,41.0,38.9,17.72,NNE,20,0.0,0.0,92,0.00,,OVC007,0.00,VWS V14.01,2013-04-24 00:26:00,
2013-04-23 20:31:00,41.0,38.9,17.72,NNE,19,0.0,0.0,92,0.00,,OVC007,0.00,VWS V14.01,2013-04-24 00:31:00,
2013-04-23 20:36:00,41.0,38.9,17.72,NNE,19,0.0,0.0,92,0.00,,OVC007,0.00,VWS V14.01,2013-04-24 00:36:00,
2013-04-23 20:41:00,41.0,38.9,17.72,NNE,22,0.0,0.0,92,0.00,,OVC007,0.00,VWS V14.01,2013-04-24 00:41:00,
2013-04-23 20:46:00,41.0,38.9,17.72,NE,34,0.0,0.0,92,0.00,,OVC007,0.00,VWS V14.01,2013-04-24 00:46:00,
2013-04-23 20:51:00,41.0,38.9,17.72,NNE,26,0.0,0.0,92,0.00,,OVC007,0.00,VWS V14.01,2013-04-24 00:51:00,
2013-04-23 20:56:00,41.0,38.9,17.72,NNE,26,0.0,0.0,92,0.00,,OVC007,0.00,VWS V14.01,2013-04-24 00:56:00,
2013-04-23 21:01:00,41.0,38.9,17.72,NE,54,0.0,0.0,92,0.00,,OVC009,0.00,VWS V14.01,2013-04-24 01:01:00,
2013-04-23 21:05:00,41.0,38.9,17.72,NE,38,0.0,0.0,92,0.00,,OVC009,0.00,VWS V14.01,2013-04-24 01:05:00,
2013-04-23 21:10:00,41.0,38.9,17.72,NE,38,0.0,0.0,92,0.00,,OVC009,0.00,VWS V14.01,2013-04-24 01:10:00,
2013-04-23 21:15:00,41.0,38.9,17.72,NE,38,0.0,0.0,92,0.00,,OVC009,0.00,VWS V14.01,2013-04-24 01:15:00,
2013-04-23 21:20:00,41.0,38.9,17.72,NE,43,0.0,0.0,92,0.00,,OVC009,0.00,VWS V14.01,2013-04-24 01:20:00,
2013-04-23 21:25:00,40.8,39.0,17.72,ENE,72,0.0,0.0,93,0.00,,OVC009,0.00,VWS V14.01,2013-04-24 01:25:00,
2013-04-23 21:30:00,40.8,39.0,17.72,NE,49,0.0,0.0,93,0.00,,OVC009,0.00,VWS V14.01,2013-04-24 01:30:00,
2013-04-23 21:35:00,40.8,39.0,17.72,ENE,68,0.0,0.0,93,0.00,,OVC009,0.00,VWS V14.01,2013-04-24 01:35:00,
2013-04-23 21:40:00,40.8,39.0,17.72,NE,38,0.0,0.0,93,0.00,,OVC009,0.00,VWS V14.01,2013-04-24 01:40:00,
2013-04-23 21:45:00,41.0,39.1,17.72,NE,49,0.0,0.0,93,0.00,,OVC009,0.00,VWS V14.01,2013-04-24 01:45:00,
2013-04-23 21:50:00,41.0,39.1,17.72,NE,53,0.0,0.0,93,0.00,,OVC009,0.00,VWS V14.01,2013-04-24 01:50:00,
2013-04-23 21:55:00,41.0,39.1,17.72,NE,42,0.0,0.0,93,0.00,,OVC009,0.00,VWS V14.01,2013-04-24 01:55:00,
2013-04-23 22:00:00,41.0,39.1,17.72,NE,49,0.0,0.0,93,0.00,,OVC009,0.00,VWS V14.01,2013-04-24 02:00:00,
2013-04-23 22:05:00,41.2,39.3,17.72,NE,39,0.0,0.0,93,0.00,,OVC007,0.00,VWS V14.01,2013-04-24 02:05:00,
2013-04-23 22:11:00,41.2,39.3,17.72,NE,44,0.0,0.0,93,0.00,,OVC007,0.00,VWS V14.01,2013-04-24 02:11:00,
2013-04-23 22:16:00,41.2,39.3,17.72,ENE,73,0.0,0.0,93,0.00,,OVC007,0.00,VWS V14.01,2013-04-24 02:16:00,
2013-04-23 22:21:00,41.2,39.6,17.72,ENE,72,0.0,0.0,94,0.00,,OVC007,0.00,VWS V14.01,2013-04-24 02:21:00,
2013-04-23 22:26:00,41.2,39.6,17.72,ENE,72,0.0,0.0,94,0.00,,OVC007,0.00,VWS V14.01,2013-04-24 02:26:00,
2013-04-23 22:31:00,41.4,39.8,17.72,ENE,72,0.0,0.0,94,0.00,,OVC007,0.00,VWS V14.01,2013-04-24 02:31:00,
2013-04-23 22:36:00,41.2,39.6,17.72,ENE,72,0.0,0.0,94,0.00,,OVC007,0.00,VWS V14.01,2013-04-24 02:36:00,
2013-04-23 22:41:00,41.2,39.6,17.72,ENE,72,0.0,0.0,94,0.00,,OVC007,0.00,VWS V14.01,2013-04-24 02:41:00,
2013-04-23 22:46:00,41.4,39.8,17.72,ENE,72,0.0,0.0,94,0.00,,OVC007,0.00,VWS V14.01,2013-04-24 02:46:00,
2013-04-23 22:51:00,41.4,39.8,17.72,ENE,72,0.0,0.0,94,0.00,,OVC007,0.00,VWS V14.01,2013-04-24 02:51:00,
2013-04-23 22:56:00,41.4,39.8,17.72,ENE,72,0.0,0.0,94,0.00,,OVC007,0.00,VWS V14.01,2013-04-24 02:56:00,
2013-04-23 23:01:00,41.5,40.0,17.72,ENE,72,0.0,0.0,94,0.00,,OVC007,0.00,VWS V14.01,2013-04-24 03:01:00,
2013-04-23 23:06:00,41.7,40.1,17.72,ENE,72,0.0,0.0,94,0.00,,OVC007,0.00,VWS V14.01,2013-04-24 03:06:00,
2013-04-23 23:12:00,41.7,40.1,17.72,ENE,72,0.0,0.0,94,0.00,,OVC007,0.00,VWS V14.01,2013-04-24 03:12:00,
2013-04-23 23:17:00,41.7,40.1,17.72,ENE,72,0.0,0.0,94,0.00,,OVC007,0.00,VWS V14.01,2013-04-24 03:17:00,
2013-04-23 23:22:00,41.7,40.1,17.72,ENE,72,0.0,0.0,94,0.00,,OVC007,0.00,VWS V14.01,2013-04-24 03:22:00,
2013-04-23 23:27:00,41.9,40.3,17.72,ENE,72,0.0,0.0,94,0.00,,OVC007,0.00,VWS V14.01,2013-04-24 03:27:00,
2013-04-23 23:33:00,41.9,40.3,17.72,ENE,72,0.0,0.0,94,0.00,,OVC007,0.00,VWS V14.01,2013-04-24 03:33:00,
2013-04-23 23:38:00,41.9,40.3,17.72,ENE,72,0.0,0.0,94,0.00,,OVC007,0.00,VWS V14.01,2013-04-24 03:38:00,
2013-04-23 23:43:00,41.9,40.3,17.72,ENE,72,0.0,0.0,94,0.00,,OVC007,0.00,VWS V14.01,2013-04-24 03:43:00,
2013-04-23 23:48:00,42.1,40.5,17.72,ENE,72,0.0,0.0,94,0.00,,OVC007,0.00,VWS V14.01,2013-04-24 03:48:00,
2013-04-23 23:53:00,42.1,40.5,17.72,NE,52,0.0,0.0,94,0.00,,OVC007,0.00,VWS V14.01,2013-04-24 03:53:00,
2013-04-23 23:58:00,42.1,40.8,17.72,NE,52,0.0,0.0,95,0.00,,OVC007,0.00,VWS V14.01,2013-04-24 03:58:00,